Temp
-2 -2 -2 -2 -1 -1 -2 -2 -2 2 3 1 2 1 4 5 6 7 8 9 11 10 10 11 11 12 11 12 12 11 10 9 10 12 15 16 15 14 11 9 11 12 13 13
-2 -2 -2 -2 -1 -2 -2 -2 -1 2 1 1 0 3 5 5 5 6 8 9 10 10 9 9 11 11 12 12 12 9 10 9 9 11 14 15 13 15 13 13 13 10 10 13
-2 -2 -2 -2 -2 -2 -2 -2 -2 1 2 1 1 2 3 5 6 7 8 9 9 9 9 10 9 10 12 11 11 11 10 9 9 9 11 10 10 12 15 13 10 11 11 13
-3 -2 -2 -2 -2 -2 -2 -2 -2 1 0 1 1 2 4 4 4 7 8 8 8 8 8 9 9 10 11 12 11 10 8 7 9 9 10 11 10 10 13 12 12 10 12 12
-3 -3 -2 -2 -2 -3 -3 -2 -2 1 1 2 1 1 2 4 5 4 6 6 8 9 8 8 8 7 8 8 10 9 8 7 7 8 11 12 12 12 14 12 12 13 12 10
-3 -3 -2 -2 -2 -2 -3 -2 -2 -2 -0 1 0 2 3 3 5 6 4 6 5 6 7 6 8 8 8 8 8 8 7 7 6 7 9 9 10 13 12 10 10 12 9 13
-3 -3 -3 -2 -2 -3 -3 -2 -2 -2 -1 0 1 3 4 4 3 3 5 6 5 6 6 7 8 8 8 7 7 8 7 7 6 6 8 8 11 12 13 12 11 13 16 15
-3 -3 -3 -3 -2 -3 -3 -3 -3 -2 -3 1 2 3 4 3 2 1 3 5 5 5 5 5 6 5 6 7 8 8 8 7 5 6 7 9 11 12 14 14 14 15 15 15
-3 -3 -3 -3 -2 -3 -3 -3 -3 -2 -2 -1 1 1 3 1 1 2 2 4 4 4 1 1 4 4 7 7 8 9 8 7 5 5 7 7 9 13 15 15 10 12 12 12
-3 -3 -3 -3 -3 -3 -3 -3 -2 -2 -2 -1 0 -1 1 1 -0 1 3 5 3 3 3 0 3 3 7 6 7 7 6 6 6 5 5 7 12 13 14 11 9 10 10 10
-2 -2 -2 -2 -3 -3 -3 -3 -3 -3 -2 -2 -0 1 -1 1 1 1 0 1 2 2 1 1 2 2 5 6 8 6 5 6 5 4 5 6 13 10 11 8 9 9 9 9
-2 -2 -2 -2 -2 -2 -3 -3 -3 -3 -3 -1 -1 -0 1 1 2 2 -0 -0 0 3 2 2 2 2 3 6 6 6 5 6 6 6 6 9 9 9 9 9 8 8 8 8
-2 -2 -2 -2 -2 -3 -3 -3 -3 -3 -3 -2 -2 0 2 1 2 2 1 1 1 1 0 1 2 3 3 3 6 6 6 6 6 7 6 7 5 6 7 7 7 7 6 6
-1 -1 -1 -1 -2 -3 -3 -3 -3 -2 -2 -2 -0 2 2 2 2 2 2 2 2 2 0 0 2 3 5 3 5 5 5 3 5 7 5 4 3 3 3 4 5 5 4 4
-1 -1 -1 -2 -2 -3 -3 -3 -3 -2 -2 -2 -1 1 2 2 2 2 2 2 2 2 1 1 2 2 4 4 6 4 4 1 4 4 3 4 3 2 2 2 2 2 2 1
-1 -1 -2 -2 -3 -3 -3 -3 -3 -2 -2 -2 -3 2 2 2 2 2 2 2 2 2 0 1 2 4 6 2 3 2 3 2 1 0 2 1 -0 -0 0 1 0 0 -0 -2
-1 -2 -2 -2 -2 -3 -3 -2 -1 -1 -2 -2 -1 -0 2 2 2 2 2 2 2 1 1 1 3 4 5 1 2 1 1 2 1 1 1 1 0 -1 -1 -1 -3 -3 -4 -5
-1 -2 -2 -2 -3 -3 -2 -1 -1 -1 -2 -1 -1 -1 0 2 1 1 1 1 0 0 1 1 2 4 4 2 -1 -1 -1 0 0 1 0 -0 -1 -2 -2 -3 -4 -5 -7 -8
-2 -2 -2 -3 -3 -3 -3 -1 -2 -2 -1 -2 -1 -1 1 2 1 0 1 1 1 1 1 1 3 -0 -1 -2 -2 -3 -3 -3 -3 -2 -2 -3 -4 -5 -5 -6 -6 -7 -8 -9
-2 -3 -3 -2 -2 -2 -1 -2 -1 -1 -1 -0 -1 3 0 1 2 2 1 1 1 1 1 4 1 -2 -3 -4 -5 -5 -5 -5 -5 -4 -5 -5 -6 -7 -8 -8 -9 -9 -9 -9
-2 -1 -1 -1 -2 -1 -1 -2 -1 -1 -1 -1 1 3 1 2 1 1 4 1 0 1 1 2 1 -1 -4 -6 -6 -6 -6 -6 -7 -7 -7 -7 -7 -8 -9 -10 -10 -10 -10 -10
-1 -1 -1 -1 -1 -1 -0 -1 -1 -1 0 2 0 3 3 2 2 2 2 2 2 2 1 1 -3 -4 -6 -7 -7 -8 -8 -8 -8 -8 -8 -9 -9 -10 -10 -11 -11 -11 -11 -11
-1 -1 -1 -1 -1 0 1 -0 -1 -1 0 1 2 1 0 1 2 1 1 2 1 2 2 -2 -4 -6 -7 -8 -8 -9 -9 -9 -10 -10 -11 -11 -11 -11 -11 -11 -11 -11 -11 -11
-0 -0 -3 -1 -1 -2 -2 -1 -1 -1 -0 1 1 -0 0 1 1 0 1 -0 -1 2 0 -5 -6 -8 -8 -9 -9 -9 -10 -11 -11 -12 -12 -11 -11 -11 -11 -11 -11 -11 -11 -12
-2 -1 -2 -4 -3 -3 -3 -3 -2 -2 -1 -1 -0 -0 1 -1 -0 1 -0 -1 0 -3 -6 -7 -8 -8 -9 -10 -10 -11 -11 -11 -11 -11 -11 -11 -11 -11 -12 -12 -11 -11 -11 -12
-4 -4 -3 -3 -3 -3 -3 -3 -3 -2 -1 -0 0 -0 0 -0 -0 -1 -3 -2 -5 -6 -9 -8 -8 -9 -10 -10 -10 -11 -11 -11 -11 -11 -11 -11 -11 -11 -11 -12 -12 -12 -12 -12
-4 -5 -5 -4 -4 -4 -4 -4 -4 -3 -2 -1 -1 -2 -2 -3 -3 -4 -5 -7 -7 -7 -8 -9 -9 -10 -10 -10 -11 -11 -11 -11 -11 -11 -11 -11 -12 -12 -12 -12 -13 -13 -13 -13
Height
1468 1468 1468 1468 1468 1468 1468 1468 1465 1457 1456 1463 1459 1457 1451 1450 1443 1441 1440 1433 1427 1429 1427 1423 1421 1421 1421 1423 1423 1424 1426 1427 1422 1414 1404 1403 1408 1411 1429 1438 1432 1424 1423 1418
1463 1464 1464 1464 1465 1466 1467 1464 1461 1455 1457 1451 1453 1450 1447 1448 1445 1440 1437 1433 1429 1429 1431 1434 1422 1421 1419 1423 1423 1427 1427 1428 1426 1416 1405 1400 1409 1404 1419 1422 1423 1434 1435 1416
1458 1459 1459 1460 1461 1462 1464 1465 1460 1450 1451 1449 1448 1449 1445 1441 1438 1435 1435 1433 1432 1430 1429 1426 1427 1423 1420 1422 1423 1424 1425 1429 1429 1427 1419 1421 1418 1412 1405 1417 1429 1424 1424 1413
1453 1453 1454 1455 1457 1459 1462 1462 1458 1452 1447 1448 1446 1448 1443 1440 1439 1431 1430 1430 1430 1431 1429 1425 1426 1422 1420 1418 1419 1423 1429 1432 1426 1423 1418 1414 1418 1413 1405 1411 1416 1422 1415 1418
1447 1448 1449 1450 1453 1455 1457 1457 1458 1452 1446 1446 1449 1448 1442 1438 1433 1439 1432 1431 1426 1425 1425 1424 1425 1428 1427 1426 1424 1426 1430 1433 1429 1422 1411 1407 1406 1405 1397 1408 1408 1406 1412 1418
1441 1443 1444 1445 1448 1451 1452 1453 1454 1457 1447 1445 1445 1442 1441 1437 1435 1428 1433 1431 1431 1427 1426 1428 1426 1427 1428 1428 1430 1431 1434 1434 1432 1424 1418 1415 1411 1395 1399 1404 1408 1408 1418 1405
1435 1437 1438 1440 1442 1445 1448 1450 1453 1452 1445 1446 1442 1440 1438 1436 1436 1434 1428 1426 1428 1428 1427 1426 1424 1425 1426 1425 1427 1427 1432 1432 1434 1434 1422 1419 1399 1390 1388 1391 1405 1402 1393 1398
1428 1429 1432 1434 1436 1439 1441 1445 1449 1448 1444 1442 1439 1439 1436 1434 1434 1433 1430 1425 1424 1425 1429 1429 1428 1428 1424 1422 1419 1421 1424 1429 1438 1436 1425 1415 1401 1390 1386 1388 1392 1384 1384 1389
1420 1422 1425 1427 1430 1434 1437 1439 1443 1444 1445 1439 1440 1439 1436 1439 1434 1429 1426 1426 1425 1427 1432 1436 1433 1435 1420 1415 1410 1407 1416 1422 1433 1435 1426 1422 1406 1391 1383 1382 1403 1396 1388 1394
1412 1414 1417 1420 1423 1427 1432 1433 1438 1440 1439 1434 1440 1441 1438 1438 1439 1433 1427 1425 1427 1428 1431 1439 1435 1434 1420 1421 1412 1411 1417 1423 1425 1430 1429 1415 1397 1396 1391 1398 1415 1403 1399 1401
1401 1404 1407 1411 1415 1421 1426 1428 1433 1436 1435 1434 1434 1433 1436 1436 1437 1434 1433 1431 1429 1431 1434 1436 1430 1431 1419 1413 1406 1411 1415 1417 1423 1429 1429 1421 1394 1397 1400 1407 1405 1405 1405 1406
1390 1392 1394 1397 1406 1413 1421 1424 1428 1433 1435 1432 1430 1429 1431 1433 1433 1434 1435 1435 1429 1430 1430 1429 1425 1425 1417 1410 1412 1410 1414 1410 1413 1411 1411 1399 1395 1392 1399 1402 1403 1407 1407 1410
1377 1380 1383 1385 1395 1406 1413 1419 1425 1431 1432 1429 1428 1422 1425 1428 1428 1430 1433 1432 1429 1430 1433 1433 1428 1423 1419 1416 1408 1404 1408 1410 1409 1404 1404 1401 1405 1411 1407 1407 1407 1410 1411 1414
1365 1367 1371 1377 1387 1400 1409 1415 1422 1426 1427 1426 1418 1418 1419 1420 1422 1425 1427 1429 1431 1432 1433 1432 1429 1420 1411 1412 1409 1408 1409 1411 1408 1402 1409 1408 1415 1420 1415 1417 1416 1414 1419 1420
1358 1360 1366 1373 1385 1398 1407 1414 1419 1422 1426 1421 1417 1415 1413 1414 1416 1418 1422 1426 1428 1430 1431 1429 1424 1419 1413 1408 1406 1413 1413 1416 1407 1411 1413 1409 1420 1422 1421 1423 1430 1423 1423 1425
1355 1360 1366 1374 1386 1397 1407 1414 1415 1418 1423 1425 1422 1413 1409 1410 1411 1414 1417 1421 1425 1427 1428 1426 1422 1416 1413 1414 1414 1421 1420 1419 1418 1418 1416 1416 1419 1423 1426 1428 1425 1424 1424 1427
1355 1361 1368 1378 1386 1393 1400 1405 1408 1412 1421 1422 1419 1409 1404 1404 1407 1411 1415 1418 1419 1422 1424 1424 1421 1416 1413 1413 1418 1425 1423 1423 1425 1425 1423 1422 1423 1429 1431 1430 1427 1427 1427 1427
1356 1364 1373 1382 1391 1399 1402 1403 1405 1408 1418 1422 1417 1409 1404 1401 1402 1406 1410 1414 1417 1419 1419 1420 1417 1413 1412 1417 1425 1424 1423 1422 1421 1423 1424 1426 1429 1431 1432 1431 1428 1428 1429 1428
1363 1371 1381 1389 1394 1397 1398 1403 1407 1410 1415 1414 1412 1407 1400 1401 1402 1403 1408 1410 1413 1415 1415 1414 1413 1414 1422 1427 1427 1426 1425 1425 1426 1428 1428 1430 1430 1431 1431 1430 1430 1430 1431 1430
1367 1375 1382 1385 1387 1395 1400 1406 1407 1408 1409 1407 1403 1400 1402 1403 1401 1402 1405 1407 1408 1411 1411 1408 1412 1426 1429 1430 1429 1429 1428 1427 1426 1426 1427 1429 1430 1430 1430 1430 1430 1429 1429 1429
1368 1374 1376 1379 1387 1395 1398 1399 1401 1404 1404 1399 1395 1396 1399 1401 1401 1402 1401 1403 1404 1407 1407 1408 1413 1424 1431 1432 1431 1431 1430 1430 1430 1429 1429 1429 1428 1428 1428 1428 1428 1428 1429 1430
1365 1367 1374 1381 1387 1389 1392 1395 1397 1397 1392 1388 1390 1391 1394 1399 1400 1400 1401 1402 1403 1403 1404 1407 1423 1431 1433 1433 1433 1433 1432 1432 1432 1431 1430 1430 1429 1430 1430 1430 1431 1431 1432 1434
1368 1373 1378 1380 1384 1384 1383 1388 1389 1389 1387 1388 1389 1393 1397 1399 1399 1401 1402 1401 1404 1402 1404 1419 1429 1433 1434 1435 1435 1435 1434 1434 1433 1433 1432 1432 1432 1432 1433 1433 1435 1436 1437 1439
1367 1372 1380 1380 1381 1386 1387 1385 1385 1388 1388 1388 1390 1394 1397 1399 1400 1401 1403 1405 1405 1402 1408 1429 1435 1436 1437 1437 1437 1436 1437 1436 1436 1436 1435 1435 1436 1436 1438 1438 1439 1440 1440 1442
1371 1375 1384 1388 1388 1388 1388 1388 1389 1390 1391 1391 1393 1396 1398 1401 1403 1402 1404 1407 1405 1417 1430 1433 1436 1437 1438 1438 1439 1439 1439 1440 1440 1440 1440 1441 1442 1442 1442 1443 1443 1443 1443 1445
1376 1383 1386 1388 1389 1390 1390 1390 1391 1391 1392 1393 1395 1397 1400 1403 1403 1406 1415 1411 1424 1430 1434 1436 1438 1439 1440 1441 1442 1442 1443 1443 1443 1444 1445 1446 1446 1446 1446 1447 1447 1446 1447 1448
1384 1391 1390 1390 1391 1393 1394 1394 1395 1394 1395 1395 1396 1402 1406 1406 1411 1419 1423 1429 1431 1433 1436 1438 1440 1441 1443 1443 1445 1446 1446 1447 1447 1449 1449 1450 1450 1450 1450 1449 1450 1450 1449 1449
Wind_Speed
18 17 16 16 13 11 12 8 3 7 13 10 6 9 7 10 23 29 17 10 5 8 12 6 5 3 5 5 3 4 4 4 5 14 16 12 10 13 10 2 2 3 2 4
18 17 18 16 15 13 10 6 11 20 16 5 6 7 11 19 19 20 10 10 11 7 10 5 4 6 6 7 2 3 4 4 3 7 5 5 2 5 12 14 6 4 3 3
18 18 17 16 13 14 14 4 3 8 18 20 6 8 11 16 23 20 23 17 15 14 8 7 5 6 1 11 4 7 4 1 5 4 9 1 4 9 11 13 5 5 7 4
18 17 16 15 14 13 13 7 4 9 2 7 7 9 10 16 7 18 19 12 13 17 10 6 4 5 7 8 10 4 3 3 4 11 14 6 9 13 13 9 11 8 4 12
18 17 16 15 17 14 17 6 5 8 12 15 8 9 10 18 18 8 11 9 13 12 10 3 3 5 3 2 5 4 2 3 5 4 9 12 7 17 14 10 6 15 5 8
20 19 18 17 17 17 14 16 19 13 8 6 3 3 8 10 14 20 18 13 10 10 7 7 7 6 4 3 1 2 1 2 3 3 11 12 6 3 7 4 5 6 8 10
22 21 19 19 19 21 24 19 12 6 8 7 8 14 18 15 16 13 19 18 13 6 10 10 8 10 10 10 7 7 5 5 2 3 5 3 7 17 12 14 16 20 12 11
21 22 22 21 21 21 24 26 20 6 2 7 12 15 11 19 13 13 15 13 1 4 7 1 2 3 3 7 15 12 10 5 2 2 2 9 9 9 4 8 4 8 11 12
25 25 24 24 23 23 23 26 26 14 5 8 14 14 17 7 6 4 7 5 7 5 3 3 1 3 4 4 4 17 12 6 4 2 4 4 3 11 15 3 5 14 17 15
28 28 28 27 25 25 24 27 22 21 7 17 24 6 6 1 4 5 6 3 3 2 2 2 3 3 4 4 4 2 8 7 13 7 4 5 6 9 11 3 2 12 20 23
30 32 31 31 29 26 26 29 24 23 10 16 14 16 20 10 6 4 11 5 2 2 2 2 4 3 4 4 6 3 5 7 5 4 4 8 8 5 2 9 16 19 22 25
33 34 32 33 34 29 27 27 25 24 19 10 8 16 21 16 16 15 4 6 8 3 3 1 3 2 2 1 2 4 2 4 2 8 6 4 16 16 23 23 21 20 21 19
34 33 32 28 37 32 32 29 20 18 20 20 27 31 23 19 19 15 5 5 4 6 9 3 3 4 3 1 2 3 2 4 3 4 9 8 24 23 23 24 26 21 18 15
26 27 26 28 36 33 32 29 24 20 4 5 10 10 16 14 16 21 18 18 17 13 11 4 3 3 2 2 3 2 1 3 3 3 8 21 22 18 23 25 22 19 15 14
17 17 21 24 35 31 28 26 25 24 14 3 7 16 17 17 15 17 23 18 12 9 1 3 2 4 4 2 0 3 4 3 2 3 8 17 16 16 17 15 10 17 15 11
11 17 19 31 34 30 25 10 25 27 20 5 3 6 12 11 15 15 17 20 16 10 3 2 5 9 4 1 2 7 15 20 26 8 9 23 19 18 14 12 12 11 11 9
15 22 27 34 33 34 26 9 7 21 23 3 3 4 4 9 17 18 19 12 10 7 4 5 4 5 6 1 2 8 12 14 15 18 12 16 16 11 10 13 13 9 10 11
25 29 32 30 28 26 27 12 7 17 21 6 3 3 3 7 6 4 9 9 8 10 4 3 3 4 3 3 7 9 13 9 18 20 17 18 15 12 13 13 10 12 12 11
30 31 28 24 22 15 24 27 15 24 7 7 4 1 4 6 3 3 5 6 2 8 3 3 4 1 3 3 8 11 16 12 10 8 16 16 17 15 11 11 11 13 14 14
34 34 17 6 15 9 14 8 11 7 6 6 2 5 2 3 9 4 4 4 2 2 4 4 3 3 10 10 12 8 9 12 11 7 10 11 13 14 14 16 15 15 16 17
32 11 8 19 28 17 9 5 4 5 3 6 8 13 3 4 2 2 4 2 2 2 3 4 2 2 4 10 10 8 7 9 12 10 9 8 10 11 11 13 12 12 13 15
17 13 29 22 7 5 4 4 4 5 4 4 4 4 9 3 2 2 1 1 1 2 6 2 2 3 11 11 10 10 8 6 8 9 10 11 12 11 13 14 16 18 18 18
31 9 5 5 4 3 5 7 3 2 2 1 4 4 3 3 2 3 1 0 2 7 2 2 3 12 13 12 9 10 9 8 7 7 8 9 12 13 15 17 17 17 17 15
4 4 4 3 3 3 3 3 2 3 4 10 14 5 3 2 2 2 1 1 2 2 3 2 3 14 11 9 6 6 10 10 12 13 15 17 17 18 17 17 15 15 17 17
5 5 3 3 2 4 2 4 5 5 7 8 7 4 3 2 2 1 2 1 1 3 2 2 12 10 8 9 10 12 12 13 15 15 17 16 16 17 17 15 14 13 13 11
5 7 3 4 4 6 10 10 8 4 5 7 3 2 2 1 1 2 4 3 3 2 3 15 16 14 12 12 11 11 13 14 15 15 15 14 14 13 13 11 9 9 7 7
5 4 13 9 10 10 7 7 6 2 3 1 2 4 1 1 3 3 3 2 4 13 17 16 14 14 14 14 15 15 15 15 15 15 14 13 12 10 9 9 9 8 8 8
Wind_Direction
279 284 286 272 276 267 266 271 267 328 189 177 202 225 220 241 275 291 295 295 298 299 318 320 335 320 75 24 352 18 54 290 254 249 263 278 246 186 171 186 207 282 193 272
274 275 279 276 265 244 242 254 270 255 261 223 218 237 244 242 261 271 284 289 297 262 280 305 316 311 157 172 71 114 358 320 305 318 234 266 234 248 185 215 245 242 305 253
273 273 275 262 252 240 229 263 282 256 226 241 250 247 261 254 248 253 267 281 300 297 252 250 266 299 354 326 47 147 110 228 282 276 323 214 296 283 223 227 221 217 231 306
274 272 268 263 242 238 225 212 253 274 296 257 247 255 271 281 284 266 260 262 254 272 277 267 280 272 268 223 174 114 95 248 294 314 309 244 248 255 262 223 226 212 191 236
277 272 264 255 241 232 223 203 235 288 303 291 236 271 261 263 272 233 277 299 258 265 269 310 312 35 47 6 21 60 82 298 341 275 311 336 230 248 239 179 290 212 235 262
274 270 260 253 240 232 231 239 251 280 286 315 344 271 273 295 292 277 212 286 304 300 15 354 353 335 142 240 2 36 127 258 8 287 349 319 306 255 152 144 304 265 235 207
264 262 259 250 239 233 233 232 235 237 266 253 276 293 299 316 288 300 307 241 220 270 330 325 298 271 238 209 233 206 233 307 161 283 351 254 304 309 184 163 182 246 212 110
262 254 252 251 244 236 235 237 231 252 269 268 275 279 283 313 323 287 304 296 184 60 331 19 281 259 275 237 235 221 209 191 225 224 202 296 310 302 360 173 181 323 95 104
263 259 255 251 246 239 233 242 234 234 258 245 290 298 285 296 299 282 279 117 120 107 94 67 197 239 225 234 230 214 202 182 178 184 215 228 328 314 332 1 53 7 72 71
264 258 254 248 242 236 229 237 235 228 225 261 268 272 308 48 338 295 299 161 99 82 128 137 179 244 269 268 259 232 190 195 213 222 257 281 260 290 329 245 147 41 59 66
259 258 248 242 238 230 223 230 229 221 241 273 260 251 291 295 322 294 357 332 11 33 173 160 227 206 249 251 224 151 202 188 198 196 208 256 289 63 301 144 90 77 62 60
258 258 259 244 225 222 216 225 226 226 235 253 263 266 256 256 268 277 291 331 281 98 227 296 310 289 284 334 271 151 178 238 190 176 200 223 39 119 127 115 99 87 78 71
257 254 251 252 212 211 209 214 216 213 234 261 264 258 249 256 249 244 217 277 341 72 41 343 297 264 349 248 250 91 75 6 245 337 23 52 66 32 74 86 88 91 89 86
259 252 240 214 202 199 203 207 208 211 203 226 269 294 260 269 246 228 243 252 259 297 315 242 252 275 252 253 261 89 310 73 262 159 83 72 62 59 66 49 72 88 84 90
270 234 210 200 186 188 196 206 206 213 210 307 313 300 273 254 241 238 226 233 246 257 208 242 256 259 280 265 38 35 57 352 257 68 2 111 87 79 72 81 69 101 102 102
203 180 178 173 175 177 175 201 220 209 219 273 306 281 271 285 209 220 215 226 235 223 192 247 263 263 289 36 77 44 40 62 46 21 99 103 91 80 79 80 106 99 104 97
188 174 169 167 171 176 170 167 141 203 204 243 266 283 291 275 230 219 222 224 202 194 202 220 258 291 339 21 87 41 31 66 62 61 126 64 65 85 87 102 99 97 91 93
152 156 159 164 171 181 193 142 66 173 177 212 258 261 272 187 149 147 175 170 180 196 202 227 241 291 170 71 45 34 19 34 47 43 83 103 113 110 100 104 104 91 82 73
147 148 149 151 171 189 209 215 242 167 167 186 216 216 347 167 124 132 141 145 157 185 215 223 179 316 59 63 55 37 25 29 8 58 80 82 96 97 88 95 89 92 95 87
144 149 149 185 190 160 189 204 192 177 206 234 240 208 162 280 178 162 127 152 169 180 224 170 85 77 86 83 72 59 36 28 8 51 42 53 86 87 82 88 96 100 108 112
149 164 174 144 155 147 178 151 158 165 224 222 218 214 155 266 136 180 215 181 188 189 224 142 120 111 90 85 69 45 42 56 66 71 75 79 95 88 79 83 91 100 101 105
158 132 133 123 141 167 165 168 179 197 226 169 164 156 151 194 161 48 298 154 355 256 142 143 88 92 97 85 70 60 62 65 74 83 90 92 90 87 95 97 99 100 105 111
126 114 144 166 159 183 180 171 211 144 74 36 119 86 103 137 74 75 93 154 187 141 108 71 54 94 94 95 91 83 78 82 91 96 99 108 108 109 104 104 102 104 104 103
94 106 66 355 117 53 16 21 45 72 100 93 106 73 84 83 73 28 122 355 42 226 145 78 100 96 98 112 103 103 102 104 105 102 103 103 103 103 104 103 106 108 105 102
83 50 70 61 97 81 84 55 83 61 90 110 95 74 92 47 82 353 84 21 98 41 78 86 123 123 120 112 112 111 111 110 108 109 106 108 111 108 106 105 105 102 102 100
69 48 78 107 125 53 45 70 63 69 80 103 89 126 107 71 43 53 23 335 46 68 97 114 127 124 125 126 126 124 119 115 113 109 109 106 101 98 97 100 92 87 88 100
60 43 41 57 73 67 57 51 18 123 3 62 45 60 47 253 81 60 17 32 105 105 106 124 132 133 132 128 122 119 116 111 107 105 99 93 84 78 73 76 74 69 66 62